Showing default

QIANFAN-33, 61566

Orbit data source: Space-Track

QIANFAN-33, 61566 is a Chinese payload satellite in LEO that was launched on Tue, 15 Oct 2024 UTC via a CHANG ZHENG 6A launch vehicle from the Taiyaun Space Center, China (TSC). Payloads include a variety of satellites, spacecraft, and rockets equipped with specific instruments for various scientific and technological missions. These include communications satellites like Starlink; space stations such as the ISS; scientific satellites like the Hubble; Earth observation satellites from companies like Planet Labs, Umbra, and HawkEye 360; GPS; miniature CubeSats for education and research; and military/defense satellites.

Loading next visibility...
QIANFAN-33 details
Identifier
61566, 2024-185Q
Orbit
LEO
Last TLE update8 hours ago
Origin
Flag of CNYUANX (CN / PRC)
ManufacturerGESIH/SECM
MissionOperational spacecraft
Bus & MotorQIANFAN, Unknown motor
Mass300 kg wet, ~300 kg dry
Launch date (UTC)
2024-10-15 (3 months ago)
Launch vehicle
CHANG ZHENG 6A
Launch site
Taiyaun Space Center, China (TSC)
Object type
Payload
Rocket body
Debris
Shape & HBRUnknown
Radar Cross SectionLarge (>1 m²)

Expand to show TLE details & history

TLE from 8 hours ago
0 QIANFAN-33
1 61566U 24185Q   25025.52824745  .00001041  00000-0  54762-3 0  9998
2 61566  88.9891 114.5919 0006235 252.8401 107.2103 14.13349084 24318
Epoch: 2025-01-25T12:40Z
Definitive object data (Epoch: 2025-01-25T12:40:40.579Z)
Latitude-0.00002°
Longitude159.34705°
Altitude852.313 km
Speed7.426 km/s
True Right ascension07h 38m 22s
True Declination0° 00' 00"
Sunlit
Object was in full shadow at TLE epoch
Visualization TLE readout
Latitude-21.64108°
Longitude-20.29054°
Altitude853.326 km
Speed7.426 km/s
Apparent Right ascension16h 39m 01s
Apparent Declination-61° 38' 49"
Sunlit
Object is in daylight
Visualization observer readout
Local Sidereal Time21:46:37
Azimuth211.867° SW
Elevation-28.824°
Doppler factor1
Orbital elements
Apogee altitude849.398 km
Perigee altitude840.391 km
Semi-major axis7,223.032 km
Eccentricity0.0006235
Inclination88.9891°
RAAN114.5919°
Arg. of periapsis252.8401°
True anomaly107.27853°
Mean anomaly107.2103°
Eccentric anomaly107.24442°
Mean motion3.53561 °/min
BSTAR0.00054762
Orbital period101.82 mins
Loading maneuver chart data...
Loading historical data...
Loading historical data...
Loading historical data...
Loading historical data...
Loading historical data...
Loading historical data...
Loading historical data...

QIANFAN-33 Visibility forecast

Observer location: undefined°, undefined

Span
Click to sort rows by Start time (UTC) header in descending order
Start Az.
Max El. time (UTC)
Max El. Az.
Max El.
End time (UTC)
End Az.
10 mins2025-01-26 05:46:31.015Z157.346° SSE2025-01-26 05:51:31.015Z85.527° E37.979°2025-01-26 05:56:31.015Z10.773° NNE
6 mins2025-01-26 07:31:31.015Z251.495° W2025-01-26 07:33:31.015Z277.595° WNW18.327°2025-01-26 07:37:31.015Z324.761° NNW
9 mins2025-01-26 18:09:31.015Z358.831° N2025-01-26 18:13:31.015Z265.092° W44.835°2025-01-26 18:18:31.015Z185.351° SSW
|